Showing default

OUT OF THE BOX, 68428

Orbit data source: Space-Track

OUT OF THE BOX, 68428 is a French payload satellite in SSO that was launched on Mon, 30 Mar 2026 UTC via an FALCON 9 launch vehicle from the Air Force Western Test Range (AFWTR). Payload-class satellites include a variety of spacecraft equipped with specific instruments for various scientific and technological missions. These include communications satellites like Starlink; space stations such as the ISS; scientific satellites like the Hubble; Earth observation satellites from companies like Planet Labs, Umbra, and HawkEye 360; GPS; miniature CubeSats for education and research; and military/defense satellites.

Loading next visibility...
Identifier
68428, 2026-067N
Orbit
SSO
Country
Flag of FRFR
Related business
Manufacturer
Endurosat
Mission
Operational Commercial Technology
Bus & Motor
CUBESAT 16U, Unknown motor
Mass
~20 kg wet, ~20 kg dry
Launch date (UTC)
2026-03-30 (6 months ago)
Launch vehicle
FALCON 9
Launch site
Air Force Western Test Range (AFWTR)
Object type
Payload
Rocket body
Debris
Shape & HBR
Box, 0.2 m
Radar Cross Section
0.100 m², Medium (>0.1 m² and < 1m²)

Expand to show TLE details & history
Last TLE update: 18 hours ago

TLE from 18 hours ago
0 OUT OF THE BOX
1 68428U 26067N   26264.32256027  .00001999  00000-0  98722-4 0  9996
2 68428  97.4686 221.6175 0002907  58.0963 302.0554 15.19031684 26536
Epoch: 2026-09-21T07:44Z
TLE epoch observation values (Epoch: 2026-09-21T07:44:29.207Z)
Latitude
-0°
Longitude
105.29176°
Altitude
510.791 km
Speed
7.609 km/s
True Right ascension
14h 46m 28s
True Declination
0° 00' 00"
Sunlit
Object was in daylight at epoch
Visualization orbit readout
Latitude
Unknown
Longitude
Unknown
Altitude
Unknown
Speed
Unknown
Apparent Right ascension
Unknown
Apparent Declination
Unknown
Sunlit
N/A
Visualization observer readout
Local Sidereal Time
18:19:20
Azimuth
Unknown
Elevation
Unknown
Doppler factor
Unknown
Orbital elements
Apogee altitude
507.737 km
Perigee altitude
503.734 km
Semi-major axis
6,883.873 km
Eccentricity
0.00029
Inclination
97.4686°
RAAN
221.6175°
Arg. of periapsis
58.0963°
True anomaly
302.02716°
Mean anomaly
302.0554°
Eccentric anomaly
302.04128°
Mean motion
3.80009 °/min
Orbital period
94.73 mins
BSTAR
0.000098722
Loading maneuver chart data...
Computing Atmospheric mass density...
Loading historical data...
Loading historical data...
Loading historical data...
Loading historical data...
Loading historical data...
Loading historical data...
Loading historical data...

Documentation

Showing up to 5 results
|